User: anonymous   Login
Location: Unspecified
(0.0000°N, 0.0000°E)
Time: 03:49:08
(UTC+00:00)
Language:

Cosmos 2298 - Orbit

View from above orbital plane
View from above orbital plane
View from above satellite
View from above satellite

Ground track
Ground track

The orbit data is extracted from the following two-line orbital elements,

1 23431U 94083A   18017.40740247 -.00000004 +00000-0 +84623-5 0  9995
2 23431 074.0309 341.3730 0017503 297.4952 062.4418 14.30288345204293
Epoch (UTC): 17 January 2018 09:46:39
Eccentricity: 0.0017503
inclination: 74.0309°
perigee height: 778 km
apogee height: 803 km
right ascension of ascending node: 341.3730°
argument of perigee: 297.4952°
revolutions per day: 14.30288345
mean anomaly at epoch: 62.4418°
orbit number at epoch: 20429

The dashed part of the orbit path shows where the satellite is in the earth's shadow,  

DLR